Location: Lane
(33.5226°N, 79.8788°W)
Time: 07:56:04
(UTC+00:00)

Tiros 1 despin weight - Pass Details

Date: 11 October 2022
Orbit: 590 x 637 km, 48.2° (Epoch: 28 November)

Event Time Altitude Azimuth Distance (km) Brightness Sun altitude
Rises 23:45:43 0° 311° (NW) 2,867 ? -12.3°
Reaches altitude 10° 23:48:03 10° 315° (NW) 1,969 ? -12.7°
Maximum altitude 23:52:31 58° 35° (NE) 722 ? -13.7°
Enters shadow 23:55:23 22° 109° (ESE) 1,382 ? -14.3°
Drops below altitude 10° 23:57:02 10° 115° (ESE) 1,991 - -14.6°
Sets 23:59:24 0° 119° (ESE) 2,903 - -15.1°
